This is the latest recevied weather packets stored in our database for station/object N5GC-2. If no packets are shown the sender has not sent any weather packets the latest 10 day(s).
| Time | Temp. | Humidity | Pressure | Rain* | Wind** | Luminosity | Snow |
|---|---|---|---|---|---|---|---|
| 1777736293 | 20° C | 41% | - | 0 mm | - | - | - |
| 1777735990 | 19.44° C | 38% | - | 0 mm | - | - | - |
| 1777735687 | 18.89° C | 41% | - | 0 mm | - | - | - |
| 1777735385 | 17.78° C | 41% | - | 0 mm | - | - | - |
| 1777735082 | 17.22° C | 41% | - | 0 mm | - | - | - |
| 1777734779 | 16.67° C | 43% | - | 0 mm | - | - | - |
| 1777734477 | 16.11° C | 46% | - | 0 mm | - | - | - |
| 1777733869 | 15.56° C | 51% | - | 0 mm | - | - | - |
| 1777733566 | 15° C | 50% | - | 0 mm | - | - | - |
| 1777733262 | 15° C | 63% | - | 0 mm | - | - | - |
| 1777732655 | 14.44° C | 66% | - | 0 mm | - | - | - |
| 1777732353 | 13.89° C | 66% | - | 0 mm | - | - | - |
| 1777732051 | 13.89° C | 68% | - | 0 mm | - | - | - |
| 1777731747 | 13.89° C | 68% | - | 0 mm | - | - | - |
| 1777731444 | 13.33° C | 68% | - | 0 mm | - | - | - |
| 1777731142 | 13.33° C | 70% | - | 0 mm | - | - | - |
| 1777730840 | 12.78° C | 71% | - | 0 mm | - | - | - |
| 1777730537 | 12.78° C | 75% | - | 0 mm | - | - | - |
| 1777730233 | 12.78° C | 75% | - | 0 mm | - | - | - |
| 1777729930 | 12.22° C | 75% | - | 0 mm | - | - | - |
| 1777729019 | 11.11° C | 78% | - | 0 mm | - | - | - |
| 1777728716 | 11.11° C | 77% | - | 0 mm | - | - | - |
| 1777728413 | 10.56° C | 78% | - | 0 mm | - | - | - |
| 1777728110 | 10.56° C | 79% | - | 0 mm | - | - | - |
| 1777727807 | 10° C | 80% | - | 0 mm | - | - | - |
* Rain latest hour (hover to see other rain measurements)
** Current wind speed in m/s (hover to see current wind gust speed)